When you browse on this site, cookies collect data to enhance your experience and personalize the content and advertising you see.
Visit our Privacy Policy to learn more. By continuing to use the site, you agree to this use of cookies and data.
  • In Latvia
  • List of Countries
  • For 7 days
  • Water Temperature
  • Satellite Maps
  • Weather Map
  • Weather Widgets
  • user-avatar
    Login

    Hourly Weather Posadza

    Today, 12 December, Wednesday

    Time Temperature Precipitation Wind Pressure Humidity
    00:00 -1°C° 0.1 mm 2 mps 737 mmHg 93%
    01:00 -1°C° 0.1 mm 2 mps 737 mmHg 94%
    02:00 -1°C° 0.1 mm 2 mps 737 mmHg 94%
    03:00 -1°C° 0.1 mm 2 mps 737 mmHg 94%
    04:00 -1°C° 0.1 mm 2 mps 738 mmHg 95%
    05:00 -2°C° 0.1 mm 2 mps 738 mmHg 95%
    06:00 0°C° 0.1 mm 1 mps 738 mmHg 95%
    07:00 0°C° 0.1 mm 1 mps 739 mmHg 95%
    08:00 -2°C° 0.1 mm 2 mps 739 mmHg 94%
    09:00 -1°C° 0.1 mm 2 mps 739 mmHg 92%
    10:00 -1°C° 0.1 mm 2 mps 740 mmHg 91%
    11:00 -1°C° 0.1 mm 2 mps 740 mmHg 90%
    12:00 +1°C° 0.1 mm 2 mps 740 mmHg 89%
    13:00 +1°C° 0.1 mm 2 mps 740 mmHg 88%
    14:00 -1°C° 0.1 mm 2 mps 741 mmHg 89%
    15:00 -1°C° 0.1 mm 2 mps 741 mmHg 91%
    16:00 0°C° 0.1 mm 1 mps 741 mmHg 92%
    17:00 0°C° 0 mm 1 mps 742 mmHg 92%
    18:00 0°C° 0 mm 1 mps 742 mmHg 93%
    19:00 -3°C° 0 mm 2 mps 742 mmHg 93%
    20:00 -1°C° 0 mm 1 mps 742 mmHg 93%
    21:00 -1°C° 0 mm 1 mps 742 mmHg 93%
    22:00 -1°C° 0 mm 1 mps 742 mmHg 94%
    23:00 -1°C° 0 mm 1 mps 743 mmHg 94%

    Tomorrow, 13 December, Thursday

    Time Temperature Precipitation Wind Pressure Humidity
    00:00 -1°C° 0 mm 1 mps 743 mmHg 94%
    01:00 -1°C° 0 mm 1 mps 743 mmHg 94%
    02:00 -1°C° 0 mm 1 mps 743 mmHg 94%
    03:00 -3°C° 0 mm 2 mps 743 mmHg 94%
    04:00 -3°C° 0 mm 2 mps 742 mmHg 93%
    05:00 -3°C° 0.1 mm 2 mps 742 mmHg 93%
    06:00 -2°C° 0.1 mm 2 mps 742 mmHg 93%
    07:00 -2°C° 0.1 mm 2 mps 742 mmHg 93%
    08:00 -2°C° 0.1 mm 2 mps 743 mmHg 92%
    09:00 -2°C° 0.1 mm 2 mps 743 mmHg 91%
    10:00 -1°C° 0.1 mm 2 mps 743 mmHg 90%
    11:00 +1°C° 0 mm 1 mps 743 mmHg 89%
    12:00 +1°C° 0 mm 1 mps 742 mmHg 88%
    13:00 +2°C° 0 mm 1 mps 742 mmHg 87%
    14:00 +1°C° 0 mm 1 mps 742 mmHg 89%
    15:00 +1°C° 0 mm 1 mps 742 mmHg 90%
    16:00 0°C° 0 mm 1 mps 742 mmHg 92%
    17:00 0°C° 0 mm 1 mps 743 mmHg 92%
    18:00 0°C° 0 mm 1 mps 743 mmHg 92%
    19:00 0°C° 0 mm 1 mps 743 mmHg 92%
    20:00 0°C° 0 mm 1 mps 743 mmHg 92%
    21:00 -1°C° 0 mm 1 mps 743 mmHg 92%
    22:00 -1°C° 0 mm 1 mps 743 mmHg 92%
    23:00 -1°C° 0 mm 1 mps 744 mmHg 92%

    Day after tomorrow, 14 December, Friday

    Time Temperature Precipitation Wind Pressure Humidity
    00:00 -1°C° 0 mm 1 mps 744 mmHg 92%
    01:00 -1°C° 0 mm 1 mps 744 mmHg 91%
    02:00 -1°C° 0 mm 1 mps 744 mmHg 91%
    03:00 -1°C° 0 mm 1 mps 744 mmHg 91%
    04:00 -1°C° 0 mm 1 mps 744 mmHg 90%
    05:00 -1°C° 0 mm 1 mps 744 mmHg 89%
    06:00 -1°C° 0 mm 1 mps 744 mmHg 89%
    07:00 -1°C° 0 mm 1 mps 744 mmHg 88%
    08:00 -1°C° 0 mm 1 mps 744 mmHg 85%
    09:00 -1°C° 0 mm 1 mps 744 mmHg 82%
    10:00 0°C° 0 mm 1 mps 745 mmHg 79%
    11:00 -2°C° 0 mm 2 mps 745 mmHg 78%
    12:00 -2°C° 0 mm 2 mps 745 mmHg 76%
    13:00 -1°C° 0 mm 2 mps 745 mmHg 74%
    14:00 -2°C° 0 mm 2 mps 745 mmHg 78%
    15:00 -3°C° 0 mm 2 mps 745 mmHg 82%
    16:00 -3°C° 0 mm 2 mps 745 mmHg 85%
    17:00 -3°C° 0 mm 2 mps 745 mmHg 87%
    18:00 -3°C° 0 mm 2 mps 745 mmHg 88%
    19:00 -3°C° 0 mm 2 mps 745 mmHg 89%
    20:00 -3°C° 0 mm 2 mps 746 mmHg 91%
    21:00 -3°C° 0 mm 2 mps 746 mmHg 92%
    22:00 -3°C° 0 mm 2 mps 746 mmHg 93%
    23:00 -4°C° 0 mm 2 mps 746 mmHg 94%

    15 December, Saturday

    Time Temperature Precipitation Wind Pressure Humidity
    00:00 -4°C° 0 mm 2 mps 746 mmHg 94%
    01:00 -4°C° 0 mm 2 mps 746 mmHg 95%
    02:00 -3°C° 0 mm 2 mps 746 mmHg 94%
    03:00 -3°C° 0 mm 2 mps 746 mmHg 94%
    04:00 -3°C° 0 mm 2 mps 746 mmHg 93%
    05:00 -4°C° 0 mm 3 mps 746 mmHg 92%
    06:00 -4°C° 0 mm 3 mps 746 mmHg 91%
    07:00 -4°C° 0 mm 3 mps 746 mmHg 90%
    08:00 -4°C° 0 mm 3 mps 747 mmHg 88%
    09:00 -4°C° 0 mm 3 mps 747 mmHg 86%
    10:00 -4°C° 0 mm 3 mps 747 mmHg 83%
    11:00 -4°C° 0 mm 4 mps 747 mmHg 82%
    12:00 -3°C° 0 mm 4 mps 747 mmHg 81%
    13:00 -3°C° 0 mm 4 mps 747 mmHg 80%
    14:00 -3°C° 0 mm 4 mps 747 mmHg 81%
    15:00 -3°C° 0 mm 4 mps 747 mmHg 82%
    16:00 -4°C° 0 mm 4 mps 747 mmHg 82%
    17:00 -4°C° 0 mm 4 mps 748 mmHg 83%
    18:00 -4°C° 0 mm 3 mps 748 mmHg 83%
    19:00 -4°C° 0 mm 3 mps 748 mmHg 83%
    20:00 -4°C° 0 mm 3 mps 748 mmHg 83%
    21:00 -4°C° 0 mm 3 mps 748 mmHg 84%
    22:00 -4°C° 0 mm 3 mps 748 mmHg 84%
    23:00 -4°C° 0 mm 3 mps 748 mmHg 85%

    16 December, Sunday

    Time Temperature Precipitation Wind Pressure Humidity
    00:00 -5°C° 0 mm 3 mps 748 mmHg 86%
    01:00 -5°C° 0 mm 3 mps 748 mmHg 87%
    02:00 -5°C° 0 mm 3 mps 748 mmHg 87%
    03:00 -4°C° 0 mm 3 mps 748 mmHg 87%
    04:00 -4°C° 0 mm 3 mps 748 mmHg 88%
    05:00 -4°C° 0 mm 3 mps 748 mmHg 88%
    06:00 -4°C° 0 mm 3 mps 748 mmHg 89%
    07:00 -4°C° 0 mm 3 mps 748 mmHg 89%
    08:00 -4°C° 0 mm 4 mps 747 mmHg 88%
    09:00 -3°C° 0 mm 4 mps 747 mmHg 87%
    10:00 -3°C° 0 mm 4 mps 747 mmHg 86%
    11:00 -3°C° 0 mm 4 mps 747 mmHg 85%
    12:00 -1°C° 0 mm 3 mps 747 mmHg 84%
    13:00 -1°C° 0 mm 3 mps 747 mmHg 83%
    14:00 -2°C° 0 mm 3 mps 747 mmHg 86%
    15:00 -2°C° 0 mm 2 mps 746 mmHg 88%
    16:00 -3°C° 0 mm 2 mps 746 mmHg 90%
    17:00 -3°C° 0 mm 2 mps 746 mmHg 91%
    18:00 -3°C° 0 mm 2 mps 746 mmHg 91%
    19:00 -4°C° 0 mm 2 mps 746 mmHg 92%
    20:00 -4°C° 0 mm 2 mps 746 mmHg 91%
    21:00 -4°C° 0 mm 2 mps 746 mmHg 91%
    22:00 -4°C° 0 mm 2 mps 746 mmHg 91%
    23:00 -4°C° 0 mm 2 mps 745 mmHg 90%

    17 December, Monday

    Time Temperature Precipitation Wind Pressure Humidity
    00:00 -4°C° 0 mm 2 mps 745 mmHg 88%
    01:00 -4°C° 0 mm 2 mps 745 mmHg 87%
    02:00 -4°C° 0 mm 2 mps 744 mmHg 85%
    03:00 -3°C° 0 mm 2 mps 744 mmHg 84%
    04:00 -3°C° 0 mm 2 mps 743 mmHg 82%
    05:00 -2°C° 0 mm 2 mps 743 mmHg 81%
    06:00 -2°C° 0 mm 2 mps 743 mmHg 81%
    07:00 -2°C° 0 mm 2 mps 742 mmHg 80%
    08:00 -2°C° 0 mm 3 mps 742 mmHg 79%
    09:00 -1°C° 0 mm 3 mps 741 mmHg 79%
    10:00 0°C° 0 mm 3 mps 741 mmHg 78%
    11:00 0°C° 0.5 mm 3 mps 741 mmHg 81%
    12:00 0°C° 0.5 mm 3 mps 740 mmHg 84%
    13:00 +1°C° 0.5 mm 3 mps 740 mmHg 87%
    14:00 +1°C° 0.5 mm 3 mps 739 mmHg 88%
    15:00 +1°C° 0.5 mm 3 mps 739 mmHg 88%
    16:00 +1°C° 0.5 mm 3 mps 739 mmHg 89%
    17:00 0°C° 0.4 mm 4 mps 739 mmHg 88%
    18:00 0°C° 0.4 mm 4 mps 739 mmHg 87%
    19:00 0°C° 0.4 mm 4 mps 739 mmHg 87%
    20:00 0°C° 0.1 mm 4 mps 739 mmHg 86%
    21:00 0°C° 0.1 mm 4 mps 739 mmHg 86%
    22:00 0°C° 0.1 mm 4 mps 740 mmHg 86%
    23:00 0°C° 0 mm 4 mps 740 mmHg 87%
    Show more